Location: Grand Lay
(47.3253°N, 0.9468°E)
Time: 17:39:21
(UTC+00:00)

Cosmos 2278 Rocket - Pass Details

Date: 18 January 2026
Orbit: 839 x 846 km, 71.0° (Epoch: 16 February)

Event Time Altitude Azimuth Distance (km) Brightness Sun altitude
Exits shadow 04:14:18 16° 157° (SSE) 2,074 4.3 -33.8°
Maximum altitude 04:17:58 31° 105° (ESE) 1,438 3.8 -33.2°
Drops below altitude 10° 04:22:51 10° 45° (NE) 2,468 5.1 -32.4°
Sets 04:25:32 0° 35° (NE) 3,408 5.8 -31.9°
